• In Hungary
  • List of Countries
  • For 7 days
  • Water Temperature
  • Satellite Maps
  • Weather Map
  • News
  • Weather Widgets
  • user-avatar
    Login

    Hourly Weather Vilvoorde

    Today, 16 December, Saturday

    Time Temperature Precipitation Wind Pressure Humidity
    00:00 +3°C° 0 mm 1 mps 752 mmHg 93%
    01:00 +2°C° 0 mm 2 mps 752 mmHg 93%
    02:00 +2°C° 0 mm 2 mps 753 mmHg 92%
    03:00 +2°C° 0 mm 2 mps 754 mmHg 92%
    04:00 +2°C° 0.1 mm 2 mps 754 mmHg 91%
    05:00 +1°C° 0.1 mm 3 mps 755 mmHg 91%
    06:00 +1°C° 0 mm 3 mps 755 mmHg 90%
    07:00 +2°C° 0.1 mm 3 mps 756 mmHg 89%
    08:00 +2°C° 0.1 mm 3 mps 757 mmHg 87%
    09:00 +2°C° 0.1 mm 3 mps 757 mmHg 86%
    10:00 +3°C° 0.2 mm 4 mps 758 mmHg 82%
    11:00 +4°C° 0.2 mm 4 mps 758 mmHg 78%
    12:00 +5°C° 0.2 mm 5 mps 759 mmHg 74%
    13:00 +3°C° 0.3 mm 5 mps 759 mmHg 76%
    14:00 +4°C° 0.3 mm 4 mps 759 mmHg 78%
    15:00 +3°C° 0.3 mm 4 mps 760 mmHg 80%
    16:00 +3°C° 0.3 mm 4 mps 760 mmHg 82%
    17:00 +3°C° 0.3 mm 4 mps 761 mmHg 84%
    18:00 +1°C° 0.3 mm 4 mps 761 mmHg 85%
    19:00 +1°C° 0.1 mm 4 mps 762 mmHg 86%
    20:00 +1°C° 0.1 mm 4 mps 762 mmHg 86%
    21:00 +1°C° 0.1 mm 3 mps 762 mmHg 86%
    22:00 +1°C° 0.1 mm 3 mps 763 mmHg 87%
    23:00 +1°C° 0.1 mm 3 mps 763 mmHg 87%

    Tomorrow, 17 December, Sunday

    Time Temperature Precipitation Wind Pressure Humidity
    00:00 +1°C° 0.1 mm 3 mps 763 mmHg 87%
    01:00 +1°C° 0.1 mm 3 mps 764 mmHg 87%
    02:00 +1°C° 0.1 mm 3 mps 764 mmHg 88%
    03:00 +1°C° 0.1 mm 3 mps 764 mmHg 88%
    04:00 +1°C° 0.1 mm 3 mps 764 mmHg 89%
    05:00 +1°C° 0.1 mm 3 mps 765 mmHg 89%
    06:00 +1°C° 0.1 mm 3 mps 765 mmHg 90%
    07:00 +1°C° 0.1 mm 3 mps 766 mmHg 89%
    08:00 +2°C° 0.1 mm 3 mps 766 mmHg 89%
    09:00 +2°C° 0.1 mm 3 mps 767 mmHg 89%
    10:00 +3°C° 0.1 mm 3 mps 767 mmHg 86%
    11:00 +4°C° 0.1 mm 3 mps 767 mmHg 84%
    12:00 +5°C° 0.1 mm 4 mps 767 mmHg 81%
    13:00 +4°C° 0 mm 4 mps 767 mmHg 81%
    14:00 +4°C° 0 mm 3 mps 767 mmHg 82%
    15:00 +3°C° 0 mm 3 mps 767 mmHg 82%
    16:00 +3°C° 0 mm 4 mps 767 mmHg 81%
    17:00 +1°C° 0 mm 4 mps 767 mmHg 81%
    18:00 +1°C° 0 mm 5 mps 767 mmHg 80%
    19:00 +1°C° 0.5 mm 5 mps 767 mmHg 81%
    20:00 +2°C° 0.5 mm 6 mps 766 mmHg 83%
    21:00 +2°C° 0.5 mm 7 mps 766 mmHg 85%
    22:00 +2°C° 0.8 mm 7 mps 766 mmHg 87%
    23:00 +3°C° 0.8 mm 7 mps 765 mmHg 90%

    Day after tomorrow, 18 December, Monday

    Time Temperature Precipitation Wind Pressure Humidity
    00:00 +4°C° 0.8 mm 7 mps 765 mmHg 92%
    01:00 +4°C° 0.3 mm 6 mps 764 mmHg 92%
    02:00 +5°C° 0.3 mm 5 mps 764 mmHg 93%
    03:00 +6°C° 0.3 mm 4 mps 764 mmHg 94%
    04:00 +6°C° 0.1 mm 4 mps 765 mmHg 92%
    05:00 +5°C° 0.1 mm 4 mps 765 mmHg 90%
    06:00 +5°C° 0.1 mm 4 mps 765 mmHg 88%
    07:00 +4°C° 0 mm 3 mps 766 mmHg 87%
    08:00 +4°C° 0 mm 3 mps 767 mmHg 86%
    09:00 +4°C° 0 mm 3 mps 768 mmHg 85%
    10:00 +5°C° 0 mm 3 mps 768 mmHg 81%
    11:00 +6°C° 0 mm 4 mps 768 mmHg 78%
    12:00 +7°C° 0 mm 5 mps 768 mmHg 75%
    13:00 +6°C° 0 mm 4 mps 769 mmHg 77%
    14:00 +7°C° 0 mm 3 mps 769 mmHg 79%
    15:00 +7°C° 0 mm 3 mps 769 mmHg 82%
    16:00 +5°C° 0 mm 3 mps 770 mmHg 84%
    17:00 +6°C° 0 mm 2 mps 771 mmHg 86%
    18:00 +5°C° 0 mm 2 mps 771 mmHg 88%
    19:00 +5°C° 0 mm 2 mps 772 mmHg 89%
    20:00 +4°C° 0 mm 2 mps 772 mmHg 89%
    21:00 +5°C° 0 mm 1 mps 772 mmHg 90%
    22:00 +5°C° 0 mm 1 mps 773 mmHg 90%
    23:00 +5°C° 0 mm 1 mps 773 mmHg 91%

    19 December, Tuesday

    Time Temperature Precipitation Wind Pressure Humidity
    00:00 +4°C° 0 mm 1 mps 774 mmHg 91%
    01:00 +4°C° 0 mm 1 mps 774 mmHg 92%
    02:00 +4°C° 0 mm 1 mps 774 mmHg 92%
    03:00 +3°C° 0 mm 2 mps 774 mmHg 93%
    04:00 +3°C° 0 mm 2 mps 774 mmHg 93%
    05:00 +3°C° 0 mm 2 mps 775 mmHg 94%
    06:00 +3°C° 0 mm 2 mps 775 mmHg 94%
    07:00 +3°C° 0 mm 2 mps 775 mmHg 94%
    08:00 +3°C° 0 mm 2 mps 775 mmHg 94%
    09:00 +3°C° 0 mm 2 mps 776 mmHg 94%
    10:00 +3°C° 0 mm 3 mps 776 mmHg 90%
    11:00 +4°C° 0 mm 3 mps 776 mmHg 86%
    12:00 +5°C° 0 mm 3 mps 776 mmHg 82%
    13:00 +5°C° 0 mm 3 mps 775 mmHg 84%
    14:00 +5°C° 0 mm 3 mps 775 mmHg 86%
    15:00 +4°C° 0 mm 3 mps 775 mmHg 87%
    16:00 +4°C° 0 mm 3 mps 775 mmHg 88%
    17:00 +3°C° 0 mm 3 mps 775 mmHg 89%
    18:00 +3°C° 0 mm 3 mps 776 mmHg 90%
    19:00 +3°C° 0 mm 4 mps 776 mmHg 89%
    20:00 +3°C° 0 mm 4 mps 776 mmHg 88%
    21:00 +4°C° 0 mm 4 mps 776 mmHg 87%
    22:00 +4°C° 0.1 mm 4 mps 776 mmHg 88%
    23:00 +4°C° 0.1 mm 4 mps 776 mmHg 89%

    20 December, Wednesday

    Time Temperature Precipitation Wind Pressure Humidity
    00:00 +4°C° 0.1 mm 4 mps 776 mmHg 90%
    01:00 +5°C° 0.1 mm 4 mps 776 mmHg 91%
    02:00 +5°C° 0.1 mm 4 mps 775 mmHg 92%
    03:00 +5°C° 0.1 mm 4 mps 775 mmHg 93%
    04:00 +5°C° 0 mm 4 mps 775 mmHg 94%
    05:00 +5°C° 0 mm 4 mps 775 mmHg 95%
    06:00 +7°C° 0 mm 3 mps 775 mmHg 96%
    07:00 +7°C° 0 mm 3 mps 776 mmHg 96%
    08:00 +7°C° 0 mm 3 mps 776 mmHg 96%
    09:00 +8°C° 0 mm 3 mps 776 mmHg 96%
    10:00 +7°C° 0 mm 4 mps 776 mmHg 96%
    11:00 +7°C° 0 mm 4 mps 776 mmHg 96%
    12:00 +8°C° 0 mm 4 mps 776 mmHg 95%
    13:00 +9°C° 0 mm 3 mps 776 mmHg 96%
    14:00 +9°C° 0 mm 3 mps 775 mmHg 96%
    15:00 +9°C° 0 mm 3 mps 775 mmHg 96%
    16:00 +9°C° 0 mm 3 mps 775 mmHg 96%
    17:00 +9°C° 0 mm 3 mps 776 mmHg 96%
    18:00 +9°C° 0 mm 3 mps 776 mmHg 96%
    19:00 +9°C° 0 mm 3 mps 776 mmHg 97%
    20:00 +9°C° 0 mm 3 mps 776 mmHg 97%
    21:00 +8°C° 0 mm 4 mps 776 mmHg 97%
    22:00 +8°C° 0 mm 4 mps 776 mmHg 97%
    23:00 +8°C° 0 mm 4 mps 776 mmHg 96%

    21 December, Thursday

    Time Temperature Precipitation Wind Pressure Humidity
    00:00 +10°C° 0 mm 4 mps 776 mmHg 96%
    01:00 +10°C° 0 mm 4 mps 776 mmHg 96%
    02:00 +10°C° 0 mm 4 mps 776 mmHg 96%
    03:00 +10°C° 0 mm 4 mps 775 mmHg 96%
    04:00 +10°C° 0 mm 4 mps 775 mmHg 95%
    05:00 +9°C° 0 mm 5 mps 775 mmHg 94%
    06:00 +9°C° 0 mm 5 mps 775 mmHg 94%
    07:00 +9°C° 0 mm 5 mps 775 mmHg 93%
    08:00 +9°C° 0 mm 5 mps 775 mmHg 92%
    09:00 +9°C° 0 mm 5 mps 775 mmHg 91%
    10:00 +9°C° 0 mm 5 mps 775 mmHg 90%
    11:00 +9°C° 0 mm 6 mps 775 mmHg 88%
    12:00 +10°C° 0 mm 6 mps 774 mmHg 87%
    13:00 +9°C° 0 mm 6 mps 774 mmHg 87%
    14:00 +9°C° 0 mm 6 mps 774 mmHg 87%
    15:00 +9°C° 0 mm 6 mps 774 mmHg 86%
    16:00 +9°C° 0.1 mm 6 mps 774 mmHg 87%
    17:00 +9°C° 0.1 mm 5 mps 774 mmHg 88%
    18:00 +9°C° 0.1 mm 5 mps 774 mmHg 90%
    19:00 +9°C° 0.4 mm 5 mps 774 mmHg 90%
    20:00 +9°C° 0.4 mm 5 mps 774 mmHg 91%
    21:00 +10°C° 0.4 mm 4 mps 775 mmHg 92%
    22:00 +8°C° 0.2 mm 4 mps 775 mmHg 92%
    23:00 +7°C° 0.2 mm 4 mps 775 mmHg 91%
    Show more